QPF
0.00 0.00 0.00 0.00 0.00 0.00 0.00 0.00 0.00 0.00 0.00 0.00 0.00 0.00 0.00 0.00 0.00 0.00 0.01 0.01 0.01 0.01 0.01 0.01 0.02 0.03 0.03 0.04 0.05 0.05 0.05 0.05 0.06 0.06 0.06 0.06 0.07 0.07 0.07 0.07 0.04 0.04 0.05 0.05 0.06 0.05 0.03 0.02 0.01
0.00 0.00 0.00 0.00 0.00 0.00 0.00 0.00 0.00 0.00 0.00 0.00 0.00 0.00 0.00 0.00 0.00 0.00 0.00 0.01 0.01 0.01 0.01 0.01 0.03 0.03 0.03 0.04 0.04 0.04 0.05 0.06 0.06 0.06 0.05 0.05 0.06 0.07 0.08 0.09 0.07 0.05 0.04 0.05 0.06 0.05 0.03 0.02 0.01
0.00 0.00 0.00 0.00 0.00 0.00 0.00 0.00 0.00 0.00 0.00 0.00 0.00 0.00 0.00 0.00 0.00 0.00 0.00 0.00 0.00 0.01 0.01 0.01 0.02 0.03 0.02 0.02 0.03 0.03 0.04 0.05 0.06 0.06 0.06 0.06 0.07 0.06 0.06 0.08 0.07 0.05 0.04 0.04 0.05 0.05 0.03 0.02 0.01
0.00 0.00 0.00 0.00 0.00 0.00 0.00 0.00 0.00 0.00 0.00 0.00 0.00 0.00 0.00 0.00 0.00 0.00 0.00 0.00 0.00 0.01 0.01 0.01 0.02 0.02 0.02 0.02 0.02 0.03 0.03 0.04 0.06 0.06 0.07 0.07 0.08 0.07 0.06 0.06 0.07 0.06 0.05 0.04 0.04 0.04 0.03 0.02 0.01
0.00 0.00 0.00 0.00 0.01 0.00 0.00 0.00 0.00 0.00 0.00 0.00 0.00 0.00 0.00 0.00 0.00 0.00 0.00 0.00 0.00 0.01 0.01 0.01 0.01 0.01 0.01 0.01 0.01 0.02 0.02 0.03 0.05 0.06 0.07 0.07 0.08 0.08 0.08 0.06 0.06 0.06 0.05 0.04 0.02 0.02 0.02 0.02 0.02
0.00 0.00 0.00 0.00 0.00 0.01 0.00 0.00 0.00 0.00 0.00 0.00 0.00 0.00 0.00 0.00 0.00 0.00 0.00 0.00 0.00 0.00 0.01 0.01 0.01 0.01 0.01 0.01 0.01 0.02 0.03 0.03 0.03 0.05 0.06 0.07 0.09 0.09 0.09 0.08 0.07 0.07 0.06 0.05 0.03 0.01 0.01 0.02 0.02
0.00 0.00 0.00 0.00 0.01 0.00 0.00 0.00 0.00 0.00 0.00 0.00 0.00 0.00 0.00 0.00 0.00 0.00 0.00 0.00 0.00 0.00 0.00 0.00 0.00 0.01 0.01 0.01 0.02 0.02 0.03 0.03 0.03 0.05 0.05 0.07 0.10 0.11 0.11 0.08 0.07 0.08 0.07 0.05 0.04 0.02 0.01 0.01 0.02
0.00 0.00 0.00 0.00 0.01 0.00 0.00 0.00 0.00 0.00 0.00 0.00 0.00 0.00 0.00 0.00 0.00 0.00 0.00 0.00 0.00 0.00 0.00 0.00 0.00 0.01 0.01 0.01 0.03 0.03 0.03 0.03 0.04 0.05 0.06 0.07 0.09 0.11 0.11 0.09 0.08 0.07 0.08 0.06 0.04 0.02 0.01 0.01 0.01
0.00 0.00 0.00 0.00 0.00 0.00 0.00 0.00 0.00 0.00 0.00 0.00 0.00 0.00 0.00 0.00 0.00 0.00 0.00 0.00 0.00 0.00 0.00 0.00 0.01 0.01 0.01 0.02 0.03 0.03 0.03 0.03 0.04 0.04 0.07 0.10 0.12 0.13 0.14 0.11 0.10 0.09 0.07 0.06 0.04 0.02 0.01 0.01 0.01
0.00 0.00 0.00 0.00 0.00 0.00 0.00 0.00 0.00 0.00 0.00 0.00 0.00 0.00 0.00 0.00 0.00 0.00 0.00 0.00 0.00 0.00 0.00 0.00 0.00 0.01 0.01 0.01 0.02 0.04 0.04 0.04 0.04 0.04 0.05 0.07 0.12 0.15 0.17 0.15 0.10 0.09 0.08 0.06 0.04 0.03 0.01 0.01 0.00
0.00 0.00 0.00 0.00 0.00 0.00 0.00 0.00 0.00 0.00 0.00 0.00 0.00 0.00 0.00 0.00 0.00 0.00 0.00 0.00 0.00 0.00 0.00 0.00 0.00 0.01 0.01 0.01 0.01 0.01 0.02 0.02 0.02 0.02 0.03 0.06 0.08 0.11 0.14 0.14 0.10 0.08 0.09 0.07 0.05 0.03 0.01 0.01 0.00
0.00 0.00 0.00 0.00 0.00 0.00 0.00 0.00 0.00 0.00 0.00 0.00 0.00 0.00 0.00 0.00 0.00 0.00 0.00 0.00 0.00 0.00 0.00 0.01 0.01 0.01 0.01 0.01 0.01 0.01 0.00 0.01 0.01 0.02 0.03 0.05 0.08 0.09 0.09 0.10 0.10 0.08 0.08 0.08 0.05 0.03 0.02 0.01 0.00
0.00 0.00 0.00 0.00 0.00 0.00 0.00 0.00 0.00 0.00 0.00 0.00 0.00 0.00 0.00 0.00 0.00 0.00 0.00 0.00 0.00 0.00 0.00 0.01 0.01 0.01 0.01 0.01 0.01 0.01 0.01 0.01 0.01 0.02 0.03 0.03 0.05 0.08 0.08 0.09 0.09 0.10 0.10 0.09 0.06 0.04 0.03 0.02 0.01
0.00 0.00 0.00 0.00 0.00 0.00 0.00 0.00 0.00 0.00 0.00 0.00 0.01 0.01 0.00 0.00 0.00 0.01 0.01 0.00 0.01 0.01 0.00 0.00 0.01 0.01 0.01 0.01 0.01 0.01 0.02 0.02 0.01 0.01 0.01 0.02 0.03 0.05 0.07 0.08 0.11 0.11 0.11 0.10 0.07 0.04 0.04 0.04 0.02
0.00 0.00 0.00 0.00 0.00 0.00 0.00 0.01 0.01 0.00 0.00 0.01 0.01 0.01 0.01 0.01 0.00 0.01 0.00 0.00 0.01 0.01 0.01 0.01 0.01 0.01 0.01 0.02 0.02 0.02 0.02 0.02 0.01 0.01 0.01 0.01 0.02 0.02 0.04 0.05 0.09 0.11 0.11 0.13 0.12 0.08 0.05 0.05 0.04
0.00 0.00 0.00 0.00 0.00 0.00 0.00 0.01 0.01 0.00 0.00 0.01 0.02 0.02 0.02 0.02 0.01 0.00 0.00 0.01 0.01 0.01 0.02 0.02 0.01 0.01 0.01 0.02 0.03 0.03 0.03 0.02 0.02 0.02 0.01 0.01 0.02 0.02 0.03 0.04 0.06 0.09 0.10 0.11 0.14 0.14 0.10 0.07 0.06
0.00 0.00 0.00 0.00 0.00 0.00 0.00 0.00 0.00 0.00 0.00 0.01 0.02 0.01 0.01 0.02 0.02 0.01 0.01 0.01 0.01 0.01 0.02 0.02 0.03 0.02 0.02 0.02 0.02 0.03 0.04 0.03 0.03 0.03 0.02 0.02 0.02 0.02 0.03 0.04 0.05 0.07 0.10 0.11 0.11 0.13 0.13 0.10 0.08
0.00 0.00 0.00 0.01 0.00 0.00 0.00 0.00 0.00 0.00 0.01 0.01 0.02 0.02 0.01 0.01 0.03 0.02 0.01 0.01 0.01 0.01 0.02 0.02 0.02 0.03 0.03 0.03 0.03 0.03 0.04 0.03 0.03 0.03 0.02 0.02 0.02 0.03 0.03 0.03 0.03 0.03 0.05 0.07 0.10 0.12 0.13 0.12 0.10
0.00 0.00 0.00 0.00 0.01 0.00 0.00 0.00 0.00 0.00 0.00 0.01 0.01 0.01 0.01 0.01 0.02 0.02 0.02 0.02 0.02 0.01 0.01 0.01 0.01 0.02 0.02 0.03 0.03 0.03 0.03 0.03 0.03 0.02 0.02 0.02 0.02 0.02 0.03 0.03 0.03 0.02 0.02 0.03 0.05 0.08 0.12 0.15 0.14
0.01 0.01 0.00 0.00 0.00 0.01 0.00 0.00 0.00 0.00 0.01 0.01 0.01 0.01 0.01 0.01 0.01 0.01 0.01 0.02 0.02 0.02 0.02 0.01 0.01 0.01 0.01 0.02 0.03 0.03 0.03 0.02 0.02 0.02 0.01 0.01 0.01 0.02 0.02 0.03 0.03 0.03 0.02 0.03 0.04 0.04 0.06 0.11 0.15
0.01 0.01 0.01 0.00 0.00 0.00 0.01 0.01 0.01 0.00 0.01 0.01 0.01 0.01 0.01 0.01 0.01 0.01 0.01 0.01 0.01 0.01 0.02 0.02 0.02 0.02 0.01 0.02 0.03 0.04 0.04 0.03 0.02 0.02 0.01 0.01 0.01 0.01 0.02 0.02 0.02 0.02 0.02 0.02 0.03 0.03 0.04 0.05 0.09
0.01 0.00 0.01 0.01 0.01 0.01 0.01 0.01 0.01 0.01 0.01 0.01 0.01 0.01 0.01 0.01 0.01 0.01 0.00 0.00 0.01 0.01 0.01 0.01 0.01 0.01 0.01 0.02 0.03 0.04 0.04 0.03 0.02 0.01 0.01 0.00 0.01 0.01 0.01 0.02 0.02 0.02 0.01 0.01 0.02 0.02 0.03 0.04 0.06
0.01 0.00 0.01 0.01 0.01 0.02 0.01 0.01 0.01 0.01 0.01 0.01 0.01 0.01 0.01 0.01 0.01 0.01 0.00 0.00 0.00 0.00 0.01 0.01 0.01 0.01 0.01 0.02 0.02 0.03 0.04 0.04 0.03 0.02 0.01 0.01 0.00 0.00 0.01 0.01 0.02 0.02 0.02 0.01 0.01 0.02 0.02 0.03 0.05
0.02 0.01 0.01 0.02 0.03 0.03 0.01 0.01 0.01 0.02 0.01 0.01 0.01 0.01 0.01 0.01 0.01 0.01 0.00 0.00 0.00 0.00 0.00 0.01 0.01 0.01 0.01 0.01 0.01 0.02 0.04 0.06 0.05 0.05 0.03 0.02 0.01 0.01 0.01 0.01 0.01 0.01 0.01 0.01 0.01 0.01 0.01 0.03 0.03
0.02 0.03 0.03 0.03 0.04 0.02 0.01 0.01 0.02 0.02 0.01 0.01 0.01 0.01 0.01 0.01 0.01 0.01 0.00 0.00 0.00 0.00 0.00 0.00 0.01 0.01 0.01 0.01 0.01 0.01 0.01 0.03 0.06 0.07 0.07 0.05 0.02 0.01 0.00 0.01 0.01 0.01 0.01 0.01 0.01 0.01 0.01 0.02 0.03
0.02 0.03 0.04 0.03 0.03 0.03 0.02 0.02 0.03 0.01 0.01 0.01 0.01 0.01 0.01 0.01 0.01 0.00 0.00 0.00 0.00 0.00 0.00 0.00 0.00 0.00 0.01 0.01 0.01 0.01 0.01 0.01 0.02 0.04 0.07 0.09 0.06 0.03 0.01 0.00 0.00 0.00 0.01 0.01 0.01 0.01 0.01 0.01 0.02
0.03 0.03 0.03 0.05 0.03 0.03 0.02 0.02 0.02 0.01 0.01 0.01 0.01 0.01 0.01 0.00 0.00 0.00 0.00 0.00 0.00 0.00 0.00 0.00 0.00 0.00 0.00 0.00 0.00 0.00 0.00 0.01 0.00 0.01 0.02 0.05 0.08 0.07 0.04 0.01 0.00 0.01 0.01 0.01 0.01 0.01 0.01 0.02 0.02
0.02 0.02 0.03 0.05 0.05 0.04 0.02 0.02 0.03 0.02 0.01 0.01 0.01 0.00 0.00 0.00 0.00 0.00 0.00 0.00 0.00 0.00 0.00 0.00 0.00 0.00 0.00 0.00 0.00 0.00 0.00 0.00 0.00 0.00 0.00 0.01 0.03 0.05 0.06 0.04 0.02 0.01 0.01 0.01 0.01 0.01 0.01 0.02 0.02
0.02 0.02 0.02 0.04 0.05 0.05 0.03 0.03 0.02 0.02 0.01 0.01 0.00 0.00 0.00 0.00 0.00 0.00 0.00 0.00 0.00 0.00 0.00 0.00 0.00 0.00 0.00 0.00 0.00 0.00 0.00 0.00 0.00 0.00 0.00 0.00 0.00 0.01 0.03 0.04 0.03 0.02 0.01 0.01 0.01 0.01 0.01 0.01 0.02
0.01 0.01 0.02 0.05 0.04 0.03 0.03 0.03 0.02 0.01 0.01 0.01 0.01 0.00 0.00 0.00 0.00 0.00 0.00 0.00 0.00 0.00 0.00 0.00 0.00 0.00 0.00 0.00 0.00 0.00 0.00 0.00 0.00 0.00 0.00 0.00 0.00 0.00 0.00 0.01 0.02 0.02 0.02 0.02 0.01 0.01 0.01 0.01 0.01
MSLP
1014.22 1014.80 1015.49 1016.19 1016.77 1017.15 1017.26 1017.12 1016.79 1016.37 1016.00 1015.76 1015.72 1015.85 1016.11 1016.38 1016.56 1016.54 1016.29 1015.82 1015.20 1014.52 1013.92 1013.47 1013.24 1013.22 1013.37 1013.61 1013.88 1014.10 1014.24 1014.32 1014.37 1014.43 1014.54 1014.73 1014.98 1015.27 1015.56 1015.81 1015.99 1016.10 1016.15 1016.19 1016.24 1016.35 1016.50 1016.72 1016.96
1014.68 1015.34 1016.05 1016.71 1017.19 1017.43 1017.38 1017.10 1016.66 1016.19 1015.80 1015.59 1015.60 1015.78 1016.08 1016.36 1016.51 1016.45 1016.15 1015.62 1014.97 1014.29 1013.71 1013.31 1013.14 1013.19 1013.40 1013.69 1013.99 1014.23 1014.39 1014.48 1014.53 1014.60 1014.72 1014.91 1015.15 1015.43 1015.70 1015.92 1016.08 1016.17 1016.22 1016.26 1016.32 1016.43 1016.60 1016.83 1017.08
1015.19 1015.89 1016.60 1017.19 1017.56 1017.66 1017.48 1017.08 1016.56 1016.06 1015.69 1015.52 1015.58 1015.81 1016.12 1016.39 1016.51 1016.40 1016.04 1015.48 1014.82 1014.16 1013.62 1013.28 1013.18 1013.29 1013.55 1013.87 1014.17 1014.41 1014.57 1014.65 1014.70 1014.76 1014.88 1015.05 1015.28 1015.54 1015.79 1016.00 1016.15 1016.24 1016.29 1016.34 1016.41 1016.53 1016.71 1016.95 1017.21
1015.71 1016.44 1017.12 1017.63 1017.89 1017.86 1017.57 1017.09 1016.53 1016.04 1015.70 1015.59 1015.70 1015.96 1016.27 1016.52 1016.60 1016.44 1016.04 1015.47 1014.82 1014.21 1013.73 1013.46 1013.42 1013.57 1013.84 1014.16 1014.44 1014.66 1014.78 1014.84 1014.87 1014.92 1015.02 1015.19 1015.40 1015.65 1015.88 1016.08 1016.22 1016.32 1016.39 1016.45 1016.55 1016.69 1016.88 1017.11 1017.36
1016.20 1016.93 1017.56 1017.99 1018.15 1018.03 1017.66 1017.14 1016.59 1016.13 1015.85 1015.80 1015.94 1016.22 1016.52 1016.74 1016.77 1016.57 1016.17 1015.61 1015.01 1014.47 1014.07 1013.87 1013.87 1014.04 1014.30 1014.57 1014.81 1014.96 1015.03 1015.05 1015.05 1015.09 1015.18 1015.33 1015.54 1015.77 1016.00 1016.19 1016.34 1016.45 1016.54 1016.64 1016.76 1016.91 1017.10 1017.32 1017.56
1016.62 1017.33 1017.90 1018.25 1018.34 1018.15 1017.76 1017.24 1016.73 1016.33 1016.12 1016.11 1016.29 1016.56 1016.84 1017.01 1017.00 1016.78 1016.39 1015.88 1015.35 1014.90 1014.58 1014.45 1014.49 1014.65 1014.87 1015.08 1015.24 1015.31 1015.32 1015.29 1015.27 1015.29 1015.38 1015.53 1015.73 1015.96 1016.18 1016.36 1016.52 1016.65 1016.76 1016.88 1017.02 1017.19 1017.38 1017.58 1017.78
1016.94 1017.60 1018.12 1018.40 1018.43 1018.22 1017.84 1017.36 1016.92 1016.60 1016.45 1016.49 1016.67 1016.92 1017.15 1017.27 1017.23 1017.00 1016.64 1016.19 1015.76 1015.40 1015.18 1015.11 1015.17 1015.32 1015.48 1015.61 1015.69 1015.69 1015.64 1015.58 1015.55 1015.57 1015.66 1015.81 1016.01 1016.23 1016.43 1016.61 1016.76 1016.89 1017.02 1017.16 1017.31 1017.48 1017.66 1017.84 1018.00
1017.16 1017.76 1018.21 1018.44 1018.44 1018.24 1017.89 1017.49 1017.13 1016.89 1016.80 1016.87 1017.04 1017.24 1017.41 1017.47 1017.38 1017.16 1016.83 1016.46 1016.13 1015.88 1015.75 1015.74 1015.82 1015.93 1016.04 1016.11 1016.11 1016.05 1015.97 1015.89 1015.87 1015.90 1016.01 1016.17 1016.37 1016.57 1016.75 1016.91 1017.04 1017.16 1017.28 1017.43 1017.59 1017.76 1017.92 1018.07 1018.20
1017.28 1017.82 1018.20 1018.39 1018.38 1018.20 1017.91 1017.60 1017.33 1017.17 1017.13 1017.20 1017.34 1017.48 1017.57 1017.56 1017.43 1017.20 1016.91 1016.62 1016.39 1016.24 1016.19 1016.23 1016.32 1016.41 1016.48 1016.49 1016.44 1016.35 1016.26 1016.21 1016.21 1016.28 1016.42 1016.60 1016.79 1016.97 1017.12 1017.23 1017.33 1017.43 1017.53 1017.67 1017.82 1017.98 1018.14 1018.26 1018.35
1017.35 1017.81 1018.13 1018.28 1018.27 1018.13 1017.91 1017.69 1017.51 1017.41 1017.41 1017.47 1017.56 1017.62 1017.62 1017.53 1017.36 1017.13 1016.87 1016.65 1016.50 1016.43 1016.45 1016.53 1016.63 1016.71 1016.74 1016.72 1016.65 1016.56 1016.50 1016.48 1016.54 1016.66 1016.84 1017.03 1017.22 1017.37 1017.48 1017.56 1017.61 1017.67 1017.75 1017.86 1018.00 1018.16 1018.30 1018.41 1018.48
1017.42 1017.80 1018.06 1018.17 1018.16 1018.06 1017.91 1017.76 1017.66 1017.61 1017.62 1017.66 1017.68 1017.67 1017.59 1017.43 1017.21 1016.97 1016.74 1016.57 1016.48 1016.48 1016.54 1016.64 1016.74 1016.81 1016.82 1016.79 1016.72 1016.67 1016.65 1016.69 1016.82 1017.00 1017.22 1017.43 1017.62 1017.75 1017.82 1017.85 1017.86 1017.88 1017.93 1018.02 1018.15 1018.29 1018.43 1018.53 1018.58
1017.54 1017.85 1018.04 1018.12 1018.11 1018.03 1017.93 1017.84 1017.79 1017.77 1017.78 1017.78 1017.75 1017.67 1017.52 1017.30 1017.05 1016.80 1016.59 1016.46 1016.40 1016.43 1016.51 1016.62 1016.70 1016.75 1016.76 1016.72 1016.68 1016.67 1016.71 1016.82 1017.01 1017.25 1017.51 1017.75 1017.94 1018.05 1018.10 1018.10 1018.07 1018.06 1018.09 1018.16 1018.28 1018.41 1018.54 1018.64 1018.69
1017.76 1018.00 1018.14 1018.18 1018.15 1018.09 1018.01 1017.96 1017.92 1017.91 1017.90 1017.87 1017.79 1017.65 1017.45 1017.20 1016.94 1016.69 1016.50 1016.39 1016.35 1016.38 1016.45 1016.54 1016.60 1016.62 1016.61 1016.59 1016.57 1016.60 1016.69 1016.87 1017.11 1017.40 1017.70 1017.96 1018.15 1018.26 1018.30 1018.29 1018.26 1018.24 1018.26 1018.32 1018.43 1018.56 1018.68 1018.77 1018.82
1018.12 1018.29 1018.38 1018.39 1018.34 1018.27 1018.19 1018.13 1018.09 1018.05 1018.01 1017.94 1017.82 1017.65 1017.43 1017.18 1016.93 1016.71 1016.54 1016.43 1016.39 1016.41 1016.45 1016.49 1016.51 1016.50 1016.47 1016.44 1016.45 1016.51 1016.64 1016.86 1017.14 1017.46 1017.77 1018.05 1018.25 1018.38 1018.44 1018.44 1018.42 1018.42 1018.44 1018.52 1018.62 1018.74 1018.86 1018.94 1018.99
1018.60 1018.73 1018.78 1018.76 1018.69 1018.60 1018.49 1018.40 1018.31 1018.22 1018.13 1018.01 1017.86 1017.68 1017.47 1017.24 1017.03 1016.85 1016.71 1016.62 1016.57 1016.55 1016.55 1016.53 1016.50 1016.45 1016.40 1016.36 1016.37 1016.45 1016.60 1016.84 1017.13 1017.46 1017.78 1018.06 1018.28 1018.43 1018.52 1018.56 1018.59 1018.62 1018.67 1018.75 1018.86 1018.97 1019.07 1019.14 1019.17
1019.18 1019.30 1019.34 1019.31 1019.22 1019.09 1018.95 1018.78 1018.61 1018.44 1018.26 1018.08 1017.90 1017.71 1017.53 1017.36 1017.21 1017.09 1016.99 1016.92 1016.87 1016.82 1016.76 1016.68 1016.60 1016.50 1016.42 1016.37 1016.38 1016.46 1016.62 1016.85 1017.14 1017.45 1017.76 1018.04 1018.27 1018.45 1018.59 1018.68 1018.76 1018.84 1018.93 1019.02 1019.13 1019.23 1019.30 1019.35 1019.37
1019.84 1019.98 1020.04 1020.02 1019.93 1019.77 1019.56 1019.30 1019.02 1018.72 1018.43 1018.16 1017.93 1017.73 1017.59 1017.48 1017.41 1017.36 1017.32 1017.28 1017.23 1017.15 1017.05 1016.92 1016.79 1016.66 1016.56 1016.50 1016.51 1016.58 1016.73 1016.94 1017.20 1017.48 1017.76 1018.03 1018.27 1018.48 1018.65 1018.81 1018.95 1019.08 1019.20 1019.31 1019.41 1019.49 1019.54 1019.56 1019.56
1020.52 1020.73 1020.86 1020.89 1020.82 1020.64 1020.35 1019.97 1019.53 1019.07 1018.63 1018.24 1017.93 1017.72 1017.59 1017.55 1017.56 1017.60 1017.63 1017.63 1017.59 1017.50 1017.36 1017.20 1017.04 1016.89 1016.78 1016.72 1016.73 1016.81 1016.94 1017.13 1017.35 1017.58 1017.83 1018.07 1018.30 1018.53 1018.74 1018.95 1019.14 1019.32 1019.47 1019.59 1019.68 1019.74 1019.76 1019.75 1019.72
1021.21 1021.53 1021.77 1021.90 1021.87 1021.67 1021.30 1020.79 1020.17 1019.51 1018.88 1018.33 1017.91 1017.64 1017.52 1017.52 1017.61 1017.72 1017.83 1017.88 1017.87 1017.78 1017.64 1017.47 1017.29 1017.14 1017.04 1017.01 1017.03 1017.12 1017.24 1017.40 1017.58 1017.77 1017.97 1018.17 1018.39 1018.62 1018.86 1019.10 1019.33 1019.54 1019.71 1019.84 1019.92 1019.95 1019.94 1019.91 1019.86
1021.91 1022.39 1022.78 1023.02 1023.06 1022.86 1022.41 1021.75 1020.93 1020.04 1019.19 1018.44 1017.88 1017.52 1017.38 1017.40 1017.54 1017.73 1017.90 1018.01 1018.03 1017.97 1017.84 1017.68 1017.52 1017.39 1017.32 1017.32 1017.37 1017.47 1017.60 1017.74 1017.88 1018.03 1018.18 1018.34 1018.53 1018.75 1018.99 1019.25 1019.51 1019.73 1019.92 1020.05 1020.11 1020.12 1020.09 1020.04 1019.99
1022.64 1023.30 1023.87 1024.25 1024.37 1024.17 1023.64 1022.82 1021.79 1020.67 1019.57 1018.61 1017.87 1017.40 1017.19 1017.20 1017.37 1017.61 1017.84 1018.00 1018.07 1018.04 1017.94 1017.80 1017.67 1017.59 1017.56 1017.61 1017.70 1017.83 1017.97 1018.10 1018.22 1018.32 1018.42 1018.54 1018.69 1018.89 1019.13 1019.39 1019.65 1019.89 1020.08 1020.20 1020.26 1020.26 1020.22 1020.16 1020.11
1023.44 1024.28 1025.02 1025.54 1025.74 1025.54 1024.94 1023.97 1022.74 1021.38 1020.03 1018.84 1017.92 1017.31 1017.01 1016.99 1017.16 1017.43 1017.70 1017.90 1018.01 1018.02 1017.95 1017.85 1017.76 1017.72 1017.75 1017.84 1017.99 1018.15 1018.31 1018.44 1018.53 1018.60 1018.66 1018.74 1018.85 1019.02 1019.24 1019.49 1019.75 1019.99 1020.18 1020.31 1020.37 1020.37 1020.34 1020.29 1020.25
1024.31 1025.32 1026.21 1026.85 1027.12 1026.92 1026.25 1025.15 1023.73 1022.15 1020.58 1019.19 1018.08 1017.32 1016.92 1016.84 1016.98 1017.24 1017.53 1017.75 1017.89 1017.92 1017.89 1017.83 1017.78 1017.79 1017.87 1018.01 1018.20 1018.39 1018.56 1018.70 1018.78 1018.82 1018.85 1018.90 1018.98 1019.12 1019.32 1019.56 1019.81 1020.05 1020.25 1020.39 1020.46 1020.48 1020.46 1020.43 1020.42
1025.29 1026.40 1027.40 1028.13 1028.43 1028.22 1027.49 1026.28 1024.72 1022.97 1021.22 1019.65 1018.38 1017.48 1016.98 1016.81 1016.90 1017.13 1017.39 1017.61 1017.75 1017.80 1017.78 1017.74 1017.73 1017.78 1017.90 1018.08 1018.31 1018.53 1018.72 1018.86 1018.93 1018.96 1018.97 1018.99 1019.05 1019.17 1019.35 1019.58 1019.83 1020.07 1020.28 1020.43 1020.53 1020.57 1020.58 1020.58 1020.60
1026.33 1027.51 1028.55 1029.30 1029.61 1029.38 1028.60 1027.32 1025.66 1023.80 1021.93 1020.23 1018.84 1017.84 1017.22 1016.96 1016.96 1017.12 1017.33 1017.51 1017.62 1017.65 1017.64 1017.61 1017.62 1017.70 1017.85 1018.06 1018.31 1018.55 1018.76 1018.91 1018.98 1019.01 1019.01 1019.02 1019.06 1019.17 1019.34 1019.56 1019.81 1020.06 1020.28 1020.45 1020.58 1020.65 1020.70 1020.73 1020.77
1027.41 1028.57 1029.60 1030.32 1030.60 1030.34 1029.52 1028.21 1026.51 1024.61 1022.69 1020.93 1019.47 1018.38 1017.67 1017.30 1017.19 1017.25 1017.36 1017.46 1017.51 1017.50 1017.46 1017.43 1017.44 1017.53 1017.70 1017.93 1018.20 1018.46 1018.68 1018.84 1018.93 1018.96 1018.96 1018.97 1019.02 1019.12 1019.29 1019.51 1019.76 1020.01 1020.25 1020.44 1020.60 1020.71 1020.79 1020.85 1020.92
1028.47 1029.55 1030.49 1031.14 1031.35 1031.05 1030.22 1028.91 1027.24 1025.36 1023.47 1021.72 1020.23 1019.09 1018.29 1017.81 1017.58 1017.49 1017.47 1017.45 1017.41 1017.33 1017.24 1017.18 1017.19 1017.28 1017.46 1017.71 1018.00 1018.27 1018.51 1018.68 1018.79 1018.84 1018.85 1018.88 1018.93 1019.04 1019.21 1019.43 1019.68 1019.94 1020.19 1020.40 1020.58 1020.72 1020.83 1020.93 1021.03
1029.47 1030.41 1031.21 1031.73 1031.85 1031.50 1030.67 1029.40 1027.81 1026.03 1024.23 1022.55 1021.09 1019.92 1019.06 1018.47 1018.08 1017.84 1017.65 1017.48 1017.30 1017.13 1016.98 1016.88 1016.87 1016.96 1017.15 1017.41 1017.70 1018.00 1018.26 1018.45 1018.58 1018.66 1018.70 1018.75 1018.82 1018.94 1019.11 1019.33 1019.58 1019.84 1020.09 1020.32 1020.52 1020.68 1020.82 1020.95 1021.07
1030.39 1031.14 1031.76 1032.11 1032.11 1031.70 1030.88 1029.69 1028.22 1026.59 1024.93 1023.36 1021.98 1020.82 1019.90 1019.20 1018.66 1018.23 1017.85 1017.51 1017.19 1016.90 1016.67 1016.53 1016.50 1016.59 1016.78 1017.05 1017.36 1017.67 1017.95 1018.17 1018.33 1018.44 1018.52 1018.59 1018.69 1018.82 1019.00 1019.21 1019.46 1019.72 1019.96 1020.20 1020.40 1020.59 1020.75 1020.90 1021.04
1031.24 1031.77 1032.16 1032.32 1032.18 1031.71 1030.89 1029.79 1028.46 1027.01 1025.53 1024.12 1022.83 1021.70 1020.74 1019.93 1019.24 1018.63 1018.07 1017.55 1017.08 1016.68 1016.37 1016.17 1016.12 1016.20 1016.39 1016.67 1017.00 1017.33 1017.63 1017.88 1018.07 1018.21 1018.32 1018.43 1018.54 1018.69 1018.87 1019.09 1019.32 1019.57 1019.80 1020.03 1020.25 1020.44 1020.62 1020.80 1020.96
Thickness
5708 5710 5710 5702 5684 5667 5670 5681 5692 5699 5702 5708 5709 5707 5700 5695 5694 5690 5695 5700 5701 5702 5704 5705 5707 5707 5708 5708 5710 5711 5712 5713 5713 5714 5714 5715 5716 5716 5716 5716 5716 5716 5716 5715 5715 5714 5714 5714 5713
5703 5705 5699 5686 5668 5657 5666 5679 5687 5696 5702 5705 5704 5700 5694 5689 5691 5690 5691 5694 5697 5698 5699 5700 5702 5702 5703 5703 5704 5706 5707 5708 5709 5709 5710 5711 5712 5712 5712 5712 5712 5711 5711 5711 5711 5711 5710 5710 5709
5699 5698 5683 5670 5661 5659 5669 5682 5687 5696 5701 5700 5693 5690 5687 5684 5685 5685 5687 5689 5691 5692 5693 5695 5696 5697 5697 5698 5699 5700 5702 5703 5704 5705 5706 5706 5707 5708 5708 5708 5707 5707 5707 5707 5707 5707 5706 5706 5705
5690 5681 5672 5660 5660 5666 5675 5682 5686 5690 5694 5693 5687 5678 5678 5680 5681 5681 5683 5684 5685 5686 5687 5688 5690 5691 5691 5692 5693 5695 5696 5697 5699 5700 5701 5702 5703 5703 5703 5703 5703 5703 5703 5702 5702 5702 5702 5702 5701
5679 5667 5657 5650 5657 5666 5674 5680 5682 5682 5684 5684 5680 5671 5669 5673 5676 5677 5677 5678 5678 5678 5680 5681 5683 5684 5685 5686 5687 5688 5690 5691 5693 5694 5696 5697 5698 5698 5698 5698 5698 5698 5698 5698 5698 5698 5697 5697 5697
5663 5655 5643 5642 5653 5664 5670 5676 5676 5674 5675 5676 5672 5664 5662 5666 5668 5669 5670 5670 5670 5671 5672 5673 5674 5676 5678 5679 5680 5682 5683 5685 5686 5688 5690 5691 5693 5693 5694 5694 5694 5694 5694 5694 5694 5693 5693 5692 5692
5653 5644 5640 5645 5648 5655 5665 5670 5667 5666 5666 5667 5667 5656 5655 5658 5661 5663 5663 5663 5663 5664 5665 5665 5666 5668 5669 5671 5673 5674 5676 5678 5679 5681 5683 5685 5686 5688 5688 5688 5688 5689 5689 5689 5688 5688 5687 5687 5687
5651 5640 5639 5640 5644 5649 5658 5662 5662 5660 5658 5661 5660 5651 5648 5652 5655 5655 5655 5655 5656 5656 5657 5658 5659 5660 5661 5663 5664 5666 5668 5670 5672 5674 5676 5678 5679 5681 5682 5682 5683 5683 5683 5683 5683 5682 5682 5682 5682
5648 5629 5627 5636 5641 5646 5651 5651 5652 5654 5652 5650 5649 5648 5649 5649 5648 5647 5646 5646 5647 5647 5648 5650 5651 5652 5653 5655 5656 5658 5660 5661 5664 5666 5668 5670 5671 5673 5675 5676 5677 5677 5677 5677 5677 5676 5676 5676 5676
5633 5620 5629 5640 5642 5642 5643 5642 5641 5642 5639 5637 5636 5638 5640 5640 5639 5638 5637 5637 5637 5638 5639 5641 5642 5643 5645 5646 5647 5648 5650 5653 5655 5657 5659 5661 5663 5665 5667 5668 5669 5670 5670 5670 5670 5670 5669 5670 5669
5627 5622 5629 5635 5638 5638 5635 5633 5634 5632 5628 5629 5628 5628 5630 5630 5630 5629 5628 5629 5629 5630 5631 5632 5633 5634 5635 5637 5638 5639 5641 5644 5646 5649 5651 5653 5655 5657 5658 5660 5661 5662 5663 5663 5663 5663 5662 5663 5663
5619 5622 5625 5628 5631 5629 5627 5625 5622 5622 5624 5626 5624 5623 5621 5621 5621 5620 5620 5620 5620 5621 5622 5623 5624 5625 5626 5628 5629 5630 5632 5634 5637 5640 5642 5644 5646 5648 5649 5651 5652 5654 5655 5655 5656 5655 5655 5655 5655
5611 5613 5617 5618 5619 5618 5617 5614 5612 5612 5615 5616 5615 5614 5613 5612 5612 5612 5612 5612 5612 5612 5613 5614 5615 5615 5616 5618 5620 5622 5623 5625 5628 5631 5634 5636 5638 5639 5640 5642 5644 5645 5647 5647 5648 5648 5647 5647 5647
5604 5605 5606 5608 5609 5609 5606 5603 5602 5604 5606 5606 5605 5603 5603 5603 5603 5603 5603 5603 5603 5604 5604 5605 5606 5607 5608 5609 5611 5614 5615 5617 5619 5622 5624 5627 5629 5630 5632 5633 5634 5636 5638 5639 5640 5641 5640 5639 5638
5596 5593 5594 5597 5599 5598 5596 5591 5592 5597 5596 5595 5594 5593 5593 5593 5594 5595 5595 5595 5595 5595 5595 5596 5597 5597 5599 5600 5602 5605 5607 5609 5611 5613 5615 5617 5619 5621 5622 5624 5625 5627 5629 5630 5631 5631 5632 5631 5630
5583 5578 5575 5587 5589 5589 5583 5578 5587 5586 5585 5583 5582 5582 5582 5583 5584 5586 5586 5586 5586 5586 5586 5587 5588 5588 5590 5591 5593 5596 5598 5600 5602 5604 5606 5608 5610 5611 5613 5614 5615 5617 5618 5620 5621 5621 5621 5621 5621
5562 5559 5563 5572 5579 5577 5572 5570 5578 5576 5575 5573 5571 5571 5571 5572 5574 5576 5577 5577 5576 5577 5577 5577 5578 5579 5580 5582 5584 5585 5588 5590 5592 5594 5595 5598 5599 5601 5602 5604 5605 5607 5608 5609 5611 5611 5611 5611 5611
5550 5549 5555 5559 5566 5565 5560 5560 5567 5566 5564 5561 5560 5560 5561 5563 5564 5566 5567 5567 5567 5567 5567 5567 5568 5569 5571 5572 5573 5575 5577 5579 5581 5583 5585 5587 5589 5591 5592 5593 5595 5596 5598 5598 5599 5600 5600 5601 5601
5547 5544 5543 5550 5555 5552 5550 5552 5558 5557 5553 5549 5549 5550 5552 5554 5554 5555 5556 5557 5557 5557 5557 5557 5558 5559 5560 5561 5563 5564 5566 5567 5570 5572 5574 5576 5578 5580 5582 5583 5584 5586 5587 5588 5589 5589 5590 5590 5591
5537 5532 5532 5537 5542 5541 5537 5541 5548 5548 5547 5546 5544 5543 5543 5543 5543 5544 5545 5546 5547 5547 5547 5548 5548 5549 5550 5551 5553 5554 5555 5557 5559 5561 5563 5565 5568 5569 5571 5573 5573 5575 5576 5577 5578 5579 5579 5579 5580
5527 5524 5524 5525 5528 5528 5524 5527 5535 5540 5539 5538 5537 5537 5536 5536 5535 5534 5535 5536 5536 5537 5537 5539 5539 5539 5540 5541 5542 5542 5544 5545 5547 5549 5552 5554 5557 5559 5561 5562 5563 5564 5565 5567 5568 5569 5569 5569 5569
5518 5521 5520 5518 5509 5504 5512 5507 5524 5527 5527 5528 5527 5525 5525 5526 5525 5525 5526 5526 5526 5526 5527 5529 5529 5530 5530 5531 5531 5531 5532 5533 5535 5537 5540 5543 5545 5548 5550 5551 5552 5553 5554 5556 5557 5559 5559 5559 5558
5512 5515 5511 5509 5502 5495 5499 5495 5510 5513 5516 5519 5519 5516 5516 5516 5516 5516 5517 5518 5518 5517 5517 5518 5519 5520 5521 5521 5521 5522 5522 5523 5524 5527 5529 5532 5534 5536 5538 5540 5541 5542 5544 5545 5546 5547 5548 5549 5549
5506 5500 5496 5488 5484 5483 5494 5487 5495 5500 5509 5512 5510 5508 5507 5507 5507 5507 5508 5508 5507 5506 5507 5508 5509 5509 5510 5510 5511 5512 5512 5512 5514 5516 5518 5520 5523 5525 5527 5529 5530 5531 5533 5534 5536 5537 5538 5538 5538
5492 5478 5468 5468 5465 5474 5485 5484 5491 5503 5504 5504 5502 5500 5497 5496 5495 5496 5497 5497 5496 5496 5496 5497 5498 5498 5499 5500 5501 5502 5503 5503 5504 5505 5507 5509 5512 5514 5516 5518 5519 5521 5522 5524 5525 5526 5527 5527 5528
5483 5475 5464 5464 5461 5467 5476 5477 5488 5495 5495 5494 5492 5489 5487 5487 5485 5486 5486 5486 5486 5486 5486 5487 5487 5488 5489 5490 5491 5492 5493 5494 5495 5496 5497 5498 5501 5504 5506 5507 5509 5510 5512 5513 5514 5515 5516 5517 5517
5475 5466 5468 5455 5448 5451 5463 5469 5479 5484 5484 5483 5480 5477 5475 5476 5476 5476 5476 5476 5476 5476 5477 5477 5477 5478 5479 5480 5481 5482 5483 5484 5486 5487 5488 5489 5491 5493 5495 5496 5498 5499 5501 5502 5503 5504 5505 5506 5506
5471 5463 5451 5446 5447 5453 5459 5460 5467 5470 5471 5471 5468 5466 5464 5466 5467 5466 5466 5466 5466 5466 5466 5467 5467 5468 5469 5470 5470 5472 5474 5475 5476 5477 5478 5480 5481 5483 5484 5485 5487 5488 5490 5491 5492 5493 5494 5495 5495
5459 5453 5447 5440 5441 5445 5447 5459 5466 5462 5462 5460 5459 5458 5457 5457 5456 5455 5456 5457 5457 5456 5455 5456 5457 5457 5458 5460 5461 5462 5464 5466 5467 5468 5469 5470 5472 5473 5475 5476 5476 5478 5479 5480 5481 5482 5483 5484 5485
5453 5448 5439 5435 5431 5429 5432 5445 5458 5452 5452 5450 5449 5448 5448 5448 5447 5446 5446 5446 5445 5445 5446 5446 5447 5448 5449 5450 5451 5453 5454 5456 5457 5459 5460 5461 5462 5463 5465 5466 5467 5467 5468 5469 5470 5471 5472 5473 5473